TimeCDT,TemperatureF,Dew PointF,Humidity,Sea Level PressureIn,VisibilityMPH,Wind Direction,Wind SpeedMPH,Gust SpeedMPH,PrecipitationIn,Events,Conditions,WindDirDegrees,DateUTC
12:56 AM,75.9,73.9,94,30.01,7.0,SSW,6.9,-,N/A,,Scattered Clouds,210,2013-07-09 05:56:00
1:56 AM,75.9,73.9,94,30.00,10.0,SSW,8.1,-,N/A,,Scattered Clouds,200,2013-07-09 06:56:00
2:56 AM,77.0,73.9,90,30.00,10.0,SSW,8.1,-,N/A,,Mostly Cloudy,210,2013-07-09 07:56:00
3:56 AM,77.0,73.9,90,30.00,10.0,SW,6.9,-,0.00,Rain,Light Rain,220,2013-07-09 08:56:00
4:56 AM,77.0,73.9,90,30.00,10.0,SW,6.9,-,0.00,,Clear,220,2013-07-09 09:56:00
5:56 AM,77.0,72.9,87,30.00,10.0,SW,10.4,-,0.00,,Scattered Clouds,220,2013-07-09 10:56:00
6:56 AM,77.0,73.9,90,29.99,10.0,SSW,8.1,-,N/A,,Clear,210,2013-07-09 11:56:00
7:56 AM,77.9,72.9,84,29.99,10.0,SW,11.5,-,N/A,,Clear,220,2013-07-09 12:56:00
8:56 AM,79.0,72.9,81,30.00,10.0,SW,10.4,-,N/A,,Clear,220,2013-07-09 13:56:00
9:56 AM,79.9,73.9,82,30.01,7.0,WSW,8.1,-,0.00,Rain,Light Rain,240,2013-07-09 14:56:00
10:56 AM,81.9,72.0,72,30.01,10.0,West,8.1,-,0.00,,Partly Cloudy,260,2013-07-09 15:56:00
11:56 AM,86.9,72.0,61,29.99,10.0,SW,9.2,-,0.00,,Clear,230,2013-07-09 16:56:00
12:56 PM,86.0,73.9,67,29.98,10.0,SW,9.2,-,N/A,,Partly Cloudy,220,2013-07-09 17:56:00
1:56 PM,90.9,72.9,55,29.96,10.0,WSW,15.0,-,N/A,,Partly Cloudy,240,2013-07-09 18:56:00
2:56 PM,88.0,73.9,63,29.94,10.0,SW,11.5,-,N/A,,Clear,220,2013-07-09 19:56:00
3:56 PM,86.9,74.8,67,29.92,10.0,SW,11.5,-,N/A,,Clear,220,2013-07-09 20:56:00
4:56 PM,86.9,74.8,67,29.92,10.0,SW,11.5,-,N/A,,Clear,220,2013-07-09 21:56:00
5:56 PM,84.9,75.9,74,29.90,10.0,SSW,11.5,-,N/A,,Clear,200,2013-07-09 22:56:00
6:56 PM,86.9,73.9,65,29.89,10.0,SW,12.7,-,N/A,,Clear,220,2013-07-09 23:56:00
7:56 PM,84.9,74.8,72,29.89,10.0,SSW,11.5,-,N/A,,Partly Cloudy,210,2013-07-10 00:56:00
8:56 PM,82.9,74.8,76,29.88,10.0,SSW,10.4,-,N/A,,Clear,210,2013-07-10 01:56:00
9:56 PM,81.9,73.9,77,29.90,10.0,SW,9.2,-,N/A,,Clear,220,2013-07-10 02:56:00
10:56 PM,79.9,73.9,82,29.91,10.0,SSW,9.2,-,N/A,,Clear,210,2013-07-10 03:56:00
11:56 PM,79.0,74.8,87,29.91,10.0,SSW,9.2,-,N/A,,Clear,210,2013-07-10 04:56:00